Flag for South Africa Weather past 2 weeks in Cape Town, South Africa

Now
57 °F

Passing clouds.


Feels Like: 57 °F
Forecast: 58 / 62 °F
Wind: 2 mph from Southwest

Location: Cape Town International Airport

Current Time: May 27, 2015 at 11:15:57 PM

Latest Report: May 27, 2015 at 10:00 PM


Visibility: N/A

Pressure: 30.07 "Hg

Humidity: 88%

Dew point: 54 °F

Location of Cape TownLocation

Historic Weather in Cape Town — Graph

°F

Cape Town temperature yesterday

Maximum temperature yesterday: 61 °F (at 10:00 AM)
Minimum temperature yesterday: 57 °F (at 2:00 AM)
Average temperature yesterday: 59 °F

Past Weeks' High & Low Weather Summary

 TemperatureHumidityPressure
High84 °F (May 22, 2:00 PM)100% (May 13, 6:00 AM)30.27 "Hg (May 13, 6:00 AM)
Low45 °F (May 17, 7:00 AM)24% (May 22, 4:00 PM)29.86 "Hg (May 18, 3:00 AM)
Average60 °F77%30.04 "Hg
* Reported May 12 10:00 PM — May 27 10:00 PM, Cape Town, Weather by CustomWeather, © 2015

Note: Actual official high and low records may vary slightly from our data, if they occured in-between our weather recording intervals... More about our weather records

Advertising

Cape Town weather history for previous 24 hours

 ConditionsComfort  
Time TempWeatherWind HumidityBarometerVisibility
10:00 PM
Wed, May 27
57 °FPassing clouds.2 mph88%30.07 "HgN/A
9:00 PM57 °FPassing clouds.3 mph88%30.07 "HgN/A
8:00 PM57 °FPassing clouds.13 mph88%30.07 "HgN/A
7:00 PM59 °FPassing clouds.7 mph88%30.07 "HgN/A
6:00 PM59 °FPassing clouds.14 mph88%30.04 "HgN/A
5:00 PM63 °FPassing clouds.12 mph77%30.04 "HgN/A
4:00 PM64 °FPassing clouds.17 mph73%30.04 "HgN/A
3:00 PM68 °FScattered clouds.14 mph64%30.01 "HgN/A
2:00 PM66 °FScattered clouds.14 mph64%30.04 "HgN/A
1:00 PM66 °FScattered clouds.13 mph64%30.07 "HgN/A
12:00 PM64 °FScattered clouds.13 mph73%30.09 "HgN/A
11:00 AM61 °FScattered clouds.10 mph88%30.09 "HgN/A
10:00 AM59 °FScattered clouds.12 mph88%30.12 "HgN/A
9:00 AM57 °FPassing clouds.9 mph88%30.12 "Hg4 mi
8:00 AM55 °FPassing clouds.8 mph94%30.09 "HgN/A
7:00 AM55 °FScattered clouds.12 mph94%30.09 "HgN/A
6:00 AM55 °FPassing clouds.13 mph94%30.09 "HgN/A
5:00 AM55 °FPassing clouds.10 mph94%30.09 "HgN/A
4:00 AM57 °FPassing clouds.9 mph88%30.09 "HgN/A
3:00 AM57 °FPassing clouds.9 mph88%30.09 "HgN/A
2:00 AM57 °FPassing clouds.10 mph88%30.09 "HgN/A
1:00 AM59 °FPassing clouds.12 mph82%30.09 "HgN/A
12:00 AM59 °FPassing clouds.7 mph82%30.09 "HgN/A
11:00 PM
Tue, May 26
61 °FPassing clouds.6 mph83%30.09 "HgN/A
Weather by CustomWeather, © 2015

See weather overviewHow to use our weather pages